STARLINK-32301

Last updated on Thu Nov 21 2024 00:02:04 GMT+0000 (Coordinated Universal Time)

1 61664U 24193D 24325.58335648 -.00017100 00000+0 -41815-3 0 9992 2 61664 53.1606 138.0216 0000891 93.5141 163.5977 15.39644627 5053
UTC large
Height (km)
Speed (km/s)
/
Latitude / Longitude
Inclination (degrees)
Orbital Period (minutes)
Azimuth
Elevation
Range (km)
Doppler Factor

Next 0 passes for location: London (51.5072 / 0.1276)

Sorry there are no passes over London.